CENTISPACE-1 S12 (62581 NORAD) Tracking and Keplerian Element Data

This shows tracking and keplerian element data for the satellite.

Feedback or suggestion? Click here.




ElementValue
Catalog62581
NameCENTISPACE-1 S12
Epoch Orbit327
Epoch Day35.24714225
Epoch Year2025
RAAN37.8137
Inclination54.9781
Eccentricity0.001567
Argument of Perigee0.8223
Mean Anonmoly359.28
Mean Motion14.75861048
Decay Rate3.975E-05
L11 62581U 25007G 25035.24714225 .00003975 00000+0 60390-3 0 9992
L22 62581 54.9781 37.8137 0015670 0.8223 359.2800 14.75861048 3274



Live tracking and technical data element details for CENTISPACE-1 S12 (NORAD 62581). CENTISPACE-1 S12 can be tracked NOW for your location showing map with azimuth and elevation plus other details from your city location.







IsCatalogInMostPopularTable: catalog: 62581, numindb: 9
Update: records affected: 1



GetName: 62581 CENTISPACE-1 S12

Hit Count: updated at: Sat, 24 May 2025 16:34:03 GMT